FW6466 Weather Reports


Display with metric or nautical units.
time (UTC)temp
F
wind
direction
speed
MPH
gust
MPH
rain 1hr
in
rain 24hr
in
rain mn
in
humidity
%
barometer
mb
20260508062016 42 329 1.0 4.0 0.00 0.01 0.00 56 1009.3
20260508061017 42 336 1.0 8.0 0.00 0.01 0.00 55 1009.4
20260508060017 42 305 2.0 6.0 0.00 0.01 0.00 56 1009.4
20260508055016 42 292 1.0 5.0 0.00 0.01 0.00 56 1009.5
20260508054320 41 45 1.0 1.0 0.00 0.01 0.00 57 1009.5
20260508053517 41 227 1.0 5.0 0.00 0.01 0.00 57 1009.5
20260508052623 41 90 1.0 5.0 0.00 0.01 0.00 56 1009.4
20260508052017 41 224 1.0 3.0 0.00 0.01 0.00 57 1009.4
20260508051015 41 225 1.0 2.0 0.00 0.01 0.00 55 1009.4
20260508050016 41 225 1.0 2.0 0.00 0.01 0.00 56 1009.4
20260508045017 42 225 0.0 1.0 0.00 0.01 0.00 53 1009.4
20260508044016 42 206 1.0 2.0 0.00 0.01 0.00 54 1009.3
20260508043017 42 202 2.0 4.0 0.00 0.01 0.00 53 1009.2
20260508042038 43 225 1.0 2.0 0.00 0.01 0.00 53 1009.1
20260508041016 43 225 2.0 2.0 0.00 0.01 0.00 52 1009.1
20260508040818 43 225 2.0 2.0 0.00 0.01 0.01 52 1009.1
20260508035016 44 223 1.0 2.0 0.00 0.01 0.01 52 1009.1
20260508034016 44 205 2.0 3.0 0.00 0.01 0.01 52 1009.2
20260508033037 45 193 2.0 5.0 0.00 0.01 0.01 51 1009.3
20260508032324 45 135 1.0 4.0 0.00 0.01 0.01 49 1009.3
20260508031018 45 207 1.0 3.0 0.00 0.01 0.01 52 1009.3
20260508030324 46 270 1.0 3.0 0.00 0.01 0.01 50 1009.3
20260508025517 46 213 1.0 3.0 0.00 0.01 0.01 50 1009.3
20260508024914 46 225 1.0 2.0 0.00 0.01 0.01 49 1009.3
20260508024017 46 282 1.0 3.0 0.00 0.01 0.01 48 1009.3
20260508023016 46 187 1.0 3.0 0.00 0.01 0.01 49 1009.2
20260508022017 46 226 2.0 4.0 0.00 0.01 0.01 47 1009.2
20260508021016 46 217 2.0 4.0 0.00 0.01 0.01 46 1009.1
20260508020017 46 206 2.0 3.0 0.00 0.01 0.01 46 1009.0
20260508015017 47 255 2.0 5.0 0.00 0.01 0.01 45 1008.9
20260508014016 47 293 2.0 6.0 0.00 0.01 0.01 44 1008.7
20260508013017 47 309 3.0 6.0 0.00 0.01 0.01 42 1008.7
20260508012017 47 299 2.0 7.0 0.00 0.01 0.01 45 1008.6
20260508011016 48 268 2.0 5.0 0.00 0.01 0.01 45 1008.5
20260508010016 49 210 1.0 4.0 0.00 0.01 0.01 44 1008.4
20260508005016 50 263 2.0 6.0 0.00 0.01 0.01 42 1008.2
20260508004057 50 264 2.0 8.0 0.00 0.02 0.01 41 1008.0
20260508003016 51 304 3.0 8.0 0.00 0.02 0.01 37 1008.0
20260508002407 52 270 2.0 3.0 0.00 0.02 0.01 37 1007.9
20260508001537 52 303 3.0 10.0 0.00 0.02 0.01 39 1007.8
20260508001113 53 270 2.0 6.0 0.00 0.02 0.01 35 1007.7
20260508000017 53 299 2.0 4.0 0.00 0.02 0.01 35 1007.7
20260507235544 54 270 4.0 5.0 0.00 0.02 0.01 34 1007.6
20260507234016 55 316 4.0 12.0 0.00 0.02 0.01 32 1007.5
20260507233037 57 319 5.0 13.0 0.00 0.02 0.01 31 1007.5
20260507232016 58 333 4.0 10.0 0.00 0.02 0.01 31 1007.5
20260507231016 59 323 5.0 13.0 0.00 0.02 0.01 32 1007.5
20260507230017 58 318 4.0 11.0 0.00 0.02 0.01 32 1007.5
20260507225126 58 315 4.0 7.0 0.00 0.02 0.01 33 1007.5
20260507224037 58 307 5.0 13.0 0.00 0.02 0.01 33 1007.4
20260507223015 57 305 6.0 14.0 0.00 0.02 0.01 33 1007.4
20260507222016 58 321 5.0 15.0 0.00 0.02 0.01 33 1007.5
20260507221017 58 312 7.0 25.0 0.00 0.02 0.01 32 1007.6
20260507220016 58 325 7.0 19.0 0.00 0.02 0.01 33 1007.6
20260507215319 58 0 6.0 6.0 0.00 0.02 0.01 33 1007.6
20260507214036 59 331 7.0 17.0 0.00 0.02 0.01 33 1007.6
20260507213017 59 309 6.0 15.0 0.00 0.02 0.01 32 1007.5
20260507212339 61 270 7.0 10.0 0.00 0.02 0.01 32 1007.6
20260507211017 61 312 8.0 15.0 0.00 0.02 0.01 31 1007.6
20260507210016 62 324 6.0 17.0 0.00 0.02 0.01 32 1007.6
20260507205016 63 314 5.0 18.0 0.00 0.02 0.01 32 1007.7
20260507204017 63 331 8.0 22.0 0.00 0.02 0.01 31 1007.7
20260507203018 62 326 4.0 16.0 0.00 0.02 0.01 33 1007.7
20260507202016 61 317 6.0 21.0 0.00 0.02 0.01 33 1007.8
20260507201017 60 322 6.0 20.0 0.00 0.02 0.01 34 1007.9
20260507200036 61 318 8.0 20.0 0.00 0.02 0.01 34 1008.0
20260507195017 61 314 7.0 16.0 0.00 0.02 0.01 34 1008.1
20260507194018 60 332 9.0 20.0 0.00 0.02 0.01 34 1008.1
20260507193017 58 325 8.0 20.0 0.00 0.02 0.01 36 1008.3
20260507192037 59 306 7.0 18.0 0.00 0.02 0.01 36 1008.4
20260507191324 59 0 7.0 12.0 0.00 0.02 0.01 36 1008.4
20260507190016 59 317 7.0 18.0 0.00 0.02 0.01 36 1008.6
20260507185017 60 287 7.0 16.0 0.00 0.02 0.01 36 1008.7
20260507184058 59 180 6.0 17.0 0.00 0.02 0.01 36 1008.8
20260507183018 58 320 8.0 16.0 0.00 0.02 0.01 37 1008.8
20260507182017 59 336 5.0 16.0 0.00 0.03 0.01 37 1009.0
20260507181058 59 315 7.0 11.0 0.00 0.03 0.01 37 1009.0
20260507180516 60 328 9.0 21.0 0.00 0.03 0.01 36 1009.0
20260507175516 60 319 7.0 17.0 0.00 0.04 0.01 37 1009.1
20260507174517 59 320 6.0 18.0 0.00 0.05 0.01 38 1009.2
20260507173929 59 0 4.0 9.0 0.00 0.05 0.01 40 1009.2
20260507172516 59 325 4.0 13.0 0.00 0.05 0.01 39 1009.2
20260507171556 58 270 6.0 14.0 0.00 0.06 0.01 38 1009.2
20260507170517 59 320 6.0 15.0 0.00 0.07 0.01 38 1009.3
20260507165516 60 330 7.0 15.0 0.00 0.08 0.01 38 1009.4
20260507164516 59 309 6.0 18.0 0.00 0.09 0.01 38 1009.5
20260507163517 60 313 7.0 14.0 0.00 0.09 0.01 38 1009.6
20260507162516 59 335 3.0 16.0 0.00 0.10 0.01 42 1009.7
20260507161821 58 23 6.0 14.0 0.00 0.12 0.01 39 1009.8
20260507160519 59 330 5.0 17.0 0.00 0.12 0.01 41 1009.9
20260507155519 58 306 6.0 16.0 0.00 0.13 0.01 41 1009.9
20260507154539 57 325 6.0 14.0 0.00 0.13 0.01 41 1010.0
20260507153519 57 292 5.0 13.0 0.00 0.14 0.01 41 1010.1
20260507152921 57 270 5.0 11.0 0.00 0.16 0.01 40 1010.2
20260507151537 57 318 5.0 12.0 0.00 0.17 0.01 43 1010.2
20260507150819 57 315 5.0 12.0 0.00 0.17 0.01 41 1010.3
20260507145517 56 334 5.0 15.0 0.00 0.18 0.01 42 1010.3
20260507144536 56 304 3.0 15.0 0.00 0.18 0.01 43 1010.3
20260507143517 55 323 6.0 19.0 0.00 0.19 0.01 43 1010.3
20260507142517 55 322 5.0 13.0 0.00 0.20 0.01 44 1010.4
20260507141516 54 312 6.0 18.0 0.00 0.21 0.01 44 1010.5
20260507140844 53 338 5.0 6.0 0.01 0.23 0.01 48 1010.5
20260507135515 52 326 7.0 15.0 0.01 0.24 0.01 47 1010.6
20260507134840 53 315 3.0 3.0 0.01 0.24 0.01 52 1010.7
20260507134016 53 322 3.0 11.0 0.01 0.24 0.01 51 1010.7
20260507133017 52 337 5.0 11.0 0.01 0.25 0.01 52 1010.9
20260507132016 51 306 4.0 14.0 0.01 0.25 0.01 54 1010.9
20260507131017 50 316 5.0 16.0 0.01 0.26 0.01 54 1011.0
20260507130016 49 334 4.0 13.0 0.00 0.25 0.00 56 1011.0
20260507125017 48 337 4.0 14.0 0.00 0.26 0.00 58 1011.0
20260507124016 47 323 6.0 11.0 0.00 0.27 0.00 58 1010.9
20260507123017 47 316 5.0 16.0 0.00 0.28 0.00 60 1010.9
20260507122035 47 325 6.0 12.0 0.00 0.28 0.00 62 1010.9
20260507121016 46 345 4.0 13.0 0.00 0.29 0.00 64 1010.9
20260507120017 45 317 7.0 16.0 0.00 0.30 0.00 64 1010.8
20260507115016 45 340 4.0 12.0 0.00 0.31 0.00 68 1010.7
20260507114017 44 326 4.0 10.0 0.00 0.31 0.00 69 1010.6
20260507113037 43 309 4.0 11.0 0.00 0.31 0.00 71 1010.5
20260507112036 43 308 3.0 16.0 0.00 0.31 0.00 73 1010.4
20260507111017 42 323 7.0 13.0 0.00 0.31 0.00 75 1010.2
20260507110036 42 320 4.0 11.0 0.00 0.31 0.00 76 1010.1
20260507105017 42 332 4.0 12.0 0.00 0.31 0.00 77 1010.0
20260507104016 42 322 4.0 11.0 0.00 0.31 0.00 78 1009.9
20260507103016 42 332 4.0 15.0 0.00 0.31 0.00 79 1009.7
20260507102017 42 315 3.0 12.0 0.00 0.31 0.00 79 1009.7
20260507101016 42 329 4.0 15.0 0.00 0.31 0.00 80 1009.8
20260507100017 42 323 5.0 13.0 0.00 0.31 0.00 80 1009.8
20260507095016 42 321 5.0 10.0 0.00 0.31 0.00 81 1009.7
20260507094037 43 320 3.0 11.0 0.00 0.31 0.00 80 1009.7
20260507093017 43 325 3.0 12.0 0.00 0.31 0.00 80 1009.6
20260507092016 43 311 4.0 11.0 0.00 0.31 0.00 79 1009.5
20260507091039 44 312 3.0 8.0 0.00 0.31 0.00 80 1009.6
20260507090016 44 321 5.0 11.0 0.00 0.31 0.00 80 1009.5
20260507085017 45 320 5.0 14.0 0.00 0.31 0.00 80 1009.5
20260507084016 45 321 6.0 13.0 0.00 0.31 0.00 81 1009.6
20260507083016 45 287 5.0 13.0 0.00 0.31 0.00 81 1009.6
20260507082017 45 321 4.0 9.0 0.00 0.31 0.00 81 1009.6
20260507081015 45 315 3.0 14.0 0.00 0.31 0.00 81 1009.8
20260507080017 45 312 5.0 14.0 0.00 0.31 0.00 81 1009.8
20260507075037 45 318 6.0 16.0 0.00 0.31 0.00 81 1009.8
20260507074016 46 313 3.0 11.0 0.00 0.31 0.00 81 1009.8
20260507073017 46 325 4.0 10.0 0.00 0.31 0.00 81 1009.7
20260507072324 46 225 4.0 8.0 0.00 0.31 0.00 81 1009.7
20260507071016 46 332 4.0 14.0 0.00 0.31 0.00 82 1009.7
20260507070018 47 323 5.0 17.0 0.00 0.31 0.00 82 1009.6
20260507065016 47 324 6.0 11.0 0.00 0.31 0.00 83 1009.4
20260507064017 47 319 3.0 12.0 0.00 0.31 0.00 82 1009.3
20260507063016 47 320 4.0 11.0 0.00 0.31 0.00 83 1009.2